CW6739 Weather Reports


Display with metric or nautical units.
time (UTC)temp
F
wind
direction
speed
MPH
gust
MPH
rain 1hr
in
rain 24hr
in
rain mn
in
humidity
%
barometer
mb
20190418100228 33 340 0.0 0.0 0.00 0.41 0.00 93 993.1
20190418093156 33 340 0.0 0.0 0.00 0.43 0.00 93 993.3
20190418090156 34 340 0.0 0.0 0.00 0.46 0.00 93 993.6
20190418083155 34 340 0.0 0.0 0.00 0.48 0.00 93 993.6
20190418080224 34 340 0.0 0.0 0.00 0.48 0.00 93 993.7
20190418073223 34 340 0.0 0.0 0.00 0.48 0.48 93 994.0
20190418070222 34 340 0.0 1.0 0.00 0.48 0.48 92 994.5
20190418063221 34 340 0.0 0.0 0.00 0.48 0.48 92 994.5
20190418060220 35 340 0.0 2.0 0.00 0.48 0.48 92 994.8
20190418053219 35 340 0.0 0.0 0.00 0.48 0.48 92 995.0
20190418050219 36 340 0.0 0.0 0.00 0.48 0.48 92 995.1
20190418043218 36 340 0.0 0.0 0.00 0.48 0.48 92 995.2
20190418040217 36 340 0.0 0.0 0.00 0.48 0.48 91 995.4
20190418033216 37 340 0.0 1.0 0.00 0.48 0.48 91 995.7
20190418030215 37 340 0.0 2.0 0.00 0.48 0.48 92 996.2
20190418023214 37 340 0.0 1.0 0.00 0.48 0.48 92 996.4
20190418020213 36 326 0.0 4.0 0.01 0.48 0.48 92 996.8
20190418013212 36 325 0.0 5.0 0.01 0.48 0.48 92 997.1
20190418010211 35 302 0.0 7.0 0.00 0.47 0.47 91 997.5
20190418003210 36 306 0.0 6.0 0.00 0.47 0.47 91 997.8
20190418000209 36 335 0.0 7.0 0.01 0.47 0.47 91 998.0
20190417233208 37 313 0.0 5.0 0.02 0.47 0.47 91 998.1
20190417230208 37 322 0.0 2.0 0.02 0.46 0.46 91 998.3
20190417223207 37 322 0.0 1.0 0.01 0.45 0.45 91 998.3
20190417220206 38 321 0.0 0.0 0.00 0.44 0.44 92 998.3
20190417213205 37 321 0.0 1.0 0.00 0.44 0.44 91 998.4
20190417210205 37 321 0.0 1.0 0.00 0.44 0.44 91 998.4
20190417203203 37 319 0.0 4.0 0.01 0.44 0.44 91 998.3
20190417200202 37 311 0.0 7.0 0.04 0.44 0.44 91 998.2
20190417193201 37 322 3.0 7.0 0.08 0.43 0.43 93 998.0
20190417190200 35 324 0.0 5.0 0.07 0.40 0.40 93 997.9
20190417183159 34 315 0.0 0.0 0.04 0.35 0.35 93 997.8
20190417180228 33 315 0.0 0.0 0.04 0.33 0.33 93 997.8
20190417173158 33 315 0.0 0.0 0.04 0.31 0.31 93 997.8
20190417170227 33 315 0.0 0.0 0.04 0.29 0.29 93 997.5
20190417163156 33 316 0.0 0.0 0.03 0.27 0.27 93 997.3
20190417160225 33 315 0.0 0.0 0.03 0.25 0.25 92 997.2
20190417153226 33 315 0.0 0.0 0.02 0.24 0.24 92 997.1
20190417150223 33 316 0.0 0.0 0.02 0.22 0.22 92 996.9
20190417143222 33 315 0.0 0.0 0.02 0.22 0.22 92 996.8
20190417140222 33 315 0.0 2.0 0.01 0.20 0.20 92 996.9
20190417133220 33 315 0.0 1.0 0.02 0.20 0.20 92 996.8
20190417130219 33 315 0.0 0.0 0.03 0.19 0.19 91 996.8
20190417123219 33 316 0.0 0.0 0.03 0.18 0.18 91 996.9
20190417120218 33 315 0.0 0.0 0.05 0.16 0.16 90 997.2
20190417113217 34 316 0.0 1.0 0.07 0.15 0.15 90 997.3
20190417110216 35 316 0.0 0.0 0.04 0.11 0.11 90 997.1
20190417103215 36 315 0.0 1.0 0.03 0.08 0.08 90 997.0